Location: Dehesa de la Cepeda
(40.6574°N, 4.3013°W)
Time: 09:47:14
(UTC+00:00)

Cosmos 158 Rocket - Pass Details

Date: 05 July 2020
Orbit: 698 x 794 km, 74.0° (Epoch: 07 August)

Event Time Altitude Azimuth Distance (km) Brightness Sun altitude
Exits shadow 22:52:56 70° 154° (SSE) 745 3.6 -23.4°
Maximum altitude 22:53:21 76° 107° (ESE) 723 3.7 -23.4°
Drops below altitude 10° 22:58:14 10° 22° (NNE) 2,175 6.9 -23.7°
Sets 23:00:34 0° 21° (NNE) 3,105 7.9 -23.9°
